Location: ????????
(54.6123°N, 39.2099°E)
Time: 14:19:58
(UTC+00:00)

ARIANE 5 R/B - Pass Details

Date: 19 May 2025
Orbit: 614 x 648 km, 98.0° (Epoch: 16 June)

Event Time Altitude Azimuth Distance (km) Brightness Sun altitude
Exits shadow 19:46:30 19° 145° (SE) 1,478 3.9 -12.8°
Maximum altitude 19:49:28 60° 70° (ENE) 713 2.8 -13.0°
Drops below altitude 10° 19:53:46 10° 351° (N) 2,010 6.6 -13.2°
Sets 19:56:00 0° 348° (NNW) 2,927 8.0 -13.3°
